Regional Weather Roundup
Issued by NWS

Home | Current Version | Previous Version | Text Only | Print | Product List | Glossary Off
Versions: 1 2 3 4 5 6 7 8 9 10 11 12 13 14 15 16 17 18 19 20 21 22 23 24 25 26 27 28 29 30 31 32 33 34 35 36 37 38 39 40 41 42 43 44 45 46 47 48 49 50

000
ASUS45 KABQ 171901
RWRNM
NEW MEXICO REGIONAL WEATHER ROUNDUP
NATIONAL WEATHER SERVICE ALBUQUERQUE NM
100 PM MDT TUE OCT 17 2017

NOTE: "FAIR" MEANS FEW OR NO CLOUDS BELOW 12,000 FEET AGL WITH NO
       SIGNIFICANT WEATHER OR OBSTRUCTIONS TO VISION.

      THIS PRODUCT IS RELEASED AS TWO VERSIONS.  ONE VERSION NEAR
      THE TOP OF THE HOUR CONTAINING PRELIMINARY DATA FROM ALBUQUERQUE
      AND OTHER STATIONS.  A FINAL VERSION WITH ADDITIONAL DATA IS
      ISSUED ABOUT 10 MINUTES AFTER THE HOUR.

NMZ501-503-504-510>518-172000-
NORTHWEST PLATEAU/NORTHCENTRAL MOUNTAINS

CITY           SKY/WX    TMP DP  RH WIND       PRES   REMARKS
FARMINGTON     FAIR      65  19  17 VRB3      30.32F
LOS ALAMOS     FAIR      62  22  21 CALM      30.39F
SANTA FE       NOT AVBL
TAOS           FAIR      65  14  14 VRB5      30.40F
ANGEL FIRE     FAIR      60  14  16 W14       30.41F

$$
NMZ402-403-502-505>509-172000-
WESTCENTRAL MOUNTAINS/SOUTHWEST MOUNTAINS

CITY           SKY/WX    TMP DP  RH WIND       PRES   REMARKS
GALLUP         FAIR      72  17  12 SW6       30.36F
GRANTS         FAIR      72  17  12 N13       30.37F
SILVER CITY    FAIR      74  42  30 S9        30.32F

$$
NMZ407-409-411-412-172000-
SOUTHERN DESERTS

CITY           SKY/WX    TMP DP  RH WIND       PRES   REMARKS
DEMING         FAIR      79  44  28 SE5       30.25F
LAS CRUCES     FAIR      77  41  27 SE5       30.28F
HOLLOMAN AFB   FAIR      82  39  21 CALM      30.27F
ALAMOGORDO     FAIR      75  37  25 SW3       30.27F
T OR C         FAIR      76  43  30 S9        30.28F

$$
NMZ519>523-172000-
CENTRAL VALLEYS/CENTRAL HIGHLANDS

CITY           SKY/WX    TMP DP  RH WIND       PRES   REMARKS
ALBUQUERQUE    FAIR      68  34  28 VRB3      30.32F
MORIARTY ARPT  FAIR      74  31  21 NW8       30.34F
CLINES CORNERS FAIR      68  23  18 W18G25    30.36F
BELEN          FAIR      69  31  24 CALM      30.32F
SOCORRO        FAIR      71  38  30 SE3       30.30F

$$
NMZ524>526-539-540-172000-
SOUTHCENTRAL MOUNTAINS

CITY           SKY/WX    TMP DP  RH WIND       PRES   REMARKS
RUIDOSO        FAIR      72  32  23 NW9G21    30.38F

$$
NMZ527>531-172000-
NORTHEAST HIGHLANDS/NORTHEAST PLAINS

CITY           SKY/WX    TMP DP  RH WIND       PRES   REMARKS
LAS VEGAS      FAIR      70  17  13 S9        30.31F
RATON          FAIR      75  14  10 W5        30.24F
CLAYTON        FAIR      75  25  15 VRB7      30.18F

$$
NMZ532>537-172000-
EASTCENTRAL PLAINS

CITY           SKY/WX    TMP DP  RH WIND       PRES   REMARKS
SANTA ROSA     FAIR      79  27  15 W14G21    30.19F
TUCUMCARI      FAIR      80  32  17 W5        30.14F
CANNON AFB     FAIR      74  42  31 W15G22    30.21F
CLOVIS AIRPORT FAIR      77  44  30 SW13G20   30.21F

$$
NMZ028-029-538-172000-
SOUTHEAST PLAINS

CITY           SKY/WX    TMP DP  RH WIND       PRES   REMARKS
ROSWELL        FAIR      71  42  35 SE5       30.22F
ARTESIA        FAIR      75  41  29 VRB6      30.21F
CARLSBAD       FAIR      75  45  34 SE8       30.20F
HOBBS          SUNNY     77  39  25 S10       30.23F


$$




USA.gov is the U.S. government's official web portal to all federal, state and local government web resources and services.